Regional Weather Roundup
Issued by NWS

Home | Current Version | Previous Version | Text Only | Print | Product List | Glossary On
Versions: 1 2 3 4 5 6 7 8 9 10 11 12 13 14 15 16 17 18 19 20 21 22 23 24 25 26 27 28 29 30 31 32 33 34 35 36 37 38 39 40 41 42 43 44 45 46 47 48 49 50
000
ASUS46 KSEW 192310
RWRWA

WASHINGTON REGIONAL WEATHER ROUNDUP
NATIONAL WEATHER SERVICE SEATTLE WA
400 PM PDT FRI OCT 19 2018

NOTE:"FAIR" INDICATES FEW OR NO CLOUDS BELOW 12,000 FEET WITH NO
SIGNIFICANT WEATHER AND/OR OBSTRUCTIONS TO VISIBILITY.

WAZ507-509-555>559-200000-
SEATTLE, TACOMA, EVERETT, AND VICINITY

CITY           SKY/WX    TMP DP  RH WIND       PRES   REMARKS
EVERETT        SUNNY     57  49  74 W3        30.26S
BOEING FIELD   SUNNY     59  49  69 VRB5      30.25F
RENTON         SUNNY     62  51  67 NW6       30.24F
SEATAC AIRPORT MOSUNNY   60  49  66 NW3       30.25F
JBLM-MCCHORD   SUNNY     60  55  85 NW3       30.25F
PUYALLUP       FAIR      68  48  49 CALM      30.24F
BREMERTON      SUNNY     63  46  54 W5        30.24F
JBLM-FT LEWIS  SUNNY     60  55  83 W5        30.24F
TACOMA NARROWS MOSUNNY   52  49  89 CALM      30.25F
$$

WAZ001-503-506-510-514-515-200000-
NORTH INTERIOR

CITY           SKY/WX    TMP DP  RH WIND       PRES   REMARKS
BELLINGHAM     SUNNY     60  47  61 SW5       30.24F
FRIDAY HARBOR  SUNNY     56  47  71 SW6       30.27S
EASTSOUND      SUNNY     57  50  77 CALM      30.24F
PORT ANGELES   SUNNY     56  47  71 NW12      30.28S
EDIZ HOOK      FAIR      54  48  81 W12G18    30.27F
PORT TOWNSEND  FAIR      57  48  72 NW5       30.25S
NAS WHIDBEY    FOG       49  46  90 W5        30.31S VSB 1/8
ARLINGTON      SUNNY     62  50  64 NW8       30.25F
BURLINGTON     SUNNY     61  46  59 CALM      30.25S
$$

WAZ020-022-039-040-504-511-512-200000-
SOUTHWEST INTERIOR

CITY           SKY/WX    TMP DP  RH WIND       PRES   REMARKS
SHELTON        SUNNY     63  51  65 SE6       30.22F
OLYMPIA        SUNNY     61  48  62 CALM      30.25F
CHEHALIS       FAIR      63  52  67 VRB3      30.24F
KELSO          SUNNY     61  52  72 W6        30.23F
VANCOUVER      SUNNY     67  48  50 W6        30.20F
SCAPPOOSE, OR  SUNNY     69  51  52 VRB3      30.20F
PORTLAND, OR   SUNNY     69  45  41 W6        30.21F
$$

WAZ021-516-517-200000-
WASHINGTON COAST

CITY           SKY/WX    TMP DP  RH WIND       PRES   REMARKS
FORKS          SUNNY     57  45  64 NW7       30.29F
HOQUIAM        FOG       51  51 100 SW5       30.28F VSB 1/4
ASTORIA, OR    SUNNY     58  52  80 N6        30.27S
$$

WAZ019-023-024-040-567>569-200000-
CASCADE MOUNTAINS AND COLUMBIA GORGE

CITY           SKY/WX    TMP DP  RH WIND       PRES   REMARKS
STAMPEDE PASS  SUNNY     60  33  36 VRB3      30.33F
TROUTDALE, OR  SUNNY     70  44  39 W6        30.20F
HOOD RIVER, OR CLEAR     68  41  37 CALM      30.26F
THE DALLES, OR SUNNY     69  41  36 VRB3      30.26F
$$

WAZ026-027-041>044-520-521-200000-
EAST SLOPES

CITY           SKY/WX    TMP DP  RH WIND       PRES   REMARKS
OMAK           SUNNY     66  39  37 S9        30.30F
WENATCHEE      SUNNY     64  47  53 E8        30.29F
ELLENSBURG     SUNNY     69  37  30 CALM      30.30F
YAKIMA         SUNNY     67  36  31 S6        30.30F
SUNNYSIDE ARPT CLEAR     67  42  39 SE3       30.30F
$$

WAZ028-034-035-200000-
COLUMBIA BASIN

CITY           SKY/WX    TMP DP  RH WIND       PRES   REMARKS
EPHRATA        SUNNY     67  33  28 S3        30.30F
MOSES LAKE     SUNNY     65  35  33 CALM      30.31F
PASCO          SUNNY     66  42  41 W3        30.31F
RICHLAND ARPT  CLEAR     67  40  37 CALM      30.31F
HERMISTON, OR  SUNNY     67  41  38 N6        30.29F
$$

WAZ036>038-200000-
NORTHEAST WASHINGTON

CITY           SKY/WX    TMP DP  RH WIND       PRES   REMARKS
SPOKANE GEIGER PTSUNNY   65  36  34 CALM      30.33F
SPOKANE FELTS  SUNNY     66  38  35 W3        30.32F
FAIRCHILD AFB  SUNNY     64  34  33 CALM      30.33F
COEURDALENE,ID SUNNY     66  35  31 CALM      30.33F
DEER PARK      SUNNY     65  34  31 S6        30.33F
$$

WAZ029>033-200000-
SOUTHEAST WASHINGTON

CITY           SKY/WX    TMP DP  RH WIND       PRES   REMARKS
PULLMAN        SUNNY     69  31  24 CALM      30.34F
LEWISTON, ID   SUNNY     68  37  32 CALM      30.30F
WALLA WALLA    SUNNY     66  38  35 W3        30.30F
PENDLETON, OR  SUNNY     67  39  35 W12       30.29F
$$



USA.gov is the U.S. government's official web portal to all federal, state and local government web resources and services.